Regional Weather Roundup
Issued by NWS Boston, MA

Current Version | Previous Version | Text Only | Print | Product List | Glossary Off
Versions: 1 2 3 4 5 6 7 8 9 10 11 12 13 14 15 16 17 18 19 20 21 22 23 24 25 26 27 28 29 30 31 32 33 34 35 36 37 38 39 40 41 42 43 44 45 46 47 48
000 ASUS41 KBOX 142310 RWRBOX REGIONAL WEATHER ROUNDUP NATIONAL WEATHER SERVICE BOSTON/NORTON MA 700 PM EDT TUE AUG 14 2018 NOTE: "FAIR" INDICATES FEW OR NO CLOUDS BELOW 12,000 FEET WITH NO SIGNIFICANT WEATHER AND/OR OBSTRUCTIONS TO VISIBILITY. MAZALL-150000- EASTERN MASSACHUSETTS CITY SKY/WX TMP DP RH WIND PRES REMARKS BOSTON MOCLDY 75 71 87 E9 29.82S BEVERLY FAIR 73 71 93 E7 29.82S LAWRENCE MOCLDY 76 70 82 W13G20 29.86R THUNDER BEDFORD LGT RAIN 73 69 87 N8 29.82R BLUE HILL N/A 77 69 76 S12G21 29.83F NORWOOD FAIR 81 70 69 S6 29.81S MARSHFIELD FAIR 81 72 74 S6 29.82F PLYMOUTH FAIR 79 70 74 S7 29.84F TAUNTON FAIR 80 70 71 S7 29.83S NEW BEDFORD FAIR 78 74 87 S12 29.83S $$ MAZALL-150000- CAPE COD AND THE ISLANDS CITY SKY/WX TMP DP RH WIND PRES REMARKS FALMOUTH FAIR 77 72 83 S14 29.86S HYANNIS FAIR 78 75 90 S9G18 29.85S CHATHAM MOCLDY 75 70 84 S5 29.88S PROVINCETOWN FAIR 75 72 90 S12 29.85S NANTUCKET FAIR 73 72 96 S10 29.87S MARTHAS VNYRD FAIR 77 74 90 SW12 29.86S $$ MAZALL-150000- CENTRAL AND WESTERN MASSACHUSETTS CITY SKY/WX TMP DP RH WIND PRES REMARKS WORCESTER FAIR 71 68 90 SE3 29.85F FITCHBURG FAIR 73 72 96 CALM 29.83F ORANGE FAIR 73 67 81 S3 29.83S SPRINGFIELD MOCLDY 73 68 83 CALM 29.80S WESTFIELD FAIR 73 72 96 CALM 29.80F NORTH ADAMS LGT RAIN 69 66 90 E5 29.83S PITTSFIELD FAIR 74 64 71 CALM 29.83R $$ RIZALL-150000- RHODE ISLAND CITY SKY/WX TMP DP RH WIND PRES REMARKS PROVIDENCE FAIR 79 67 66 S16 29.84S NEWPORT FAIR 76 71 85 S10 29.85S BLOCK ISLAND FAIR 76 71 85 SW12 29.86S SMITHFIELD FAIR 77 68 73 VRB5 29.84S WESTERLY FAIR 78 72 81 S12 29.85S $$ CTZALL-150000- CONNECTICUT CITY SKY/WX TMP DP RH WIND PRES REMARKS BRADLEY INTL MOCLDY 76 70 82 CALM 29.80S HARTFORD FAIR 79 68 69 S9 29.80R BRIDGEPORT LGT RAIN 76 66 71 SW9 29.81F DANBURY CLOUDY 73 71 93 S6 29.82F GROTON FAIR 75 69 81 S9 29.82F NEW HAVEN MOCLDY 76 69 79 SW8 29.82S CHESTER FAIR 75 70 83 S6 29.84S MERIDEN FAIR 78 68 71 S9 29.80F WILLIMANTIC FAIR 78 68 71 S8G18 29.83R OXFORD MOCLDY 73 70 88 S6 29.83F $$ MEZ002-015-021-024-NHZ003-005-008-011-012-014-VTZ005-008-150000- NORTHERN NEW ENGLAND CITY SKY/WX TMP DP RH WIND PRES REMARKS PORTLAND ME RAIN 70 70 100 E8 29.84F VSB 1 BANGOR ME MOCLDY 75 70 84 S8 29.85F CONCORD NH FAIR 75 70 84 SE5 29.84R MANCHESTER NH LGT RAIN 73 71 93 S7 29.82R NASHUA NH MOCLDY 71 70 96 CALM 29.83F PORTSMOUTH NH PTCLDY 70 67 91 E3 29.82F JAFFREY NH FAIR 74 70 87 CALM 29.86R KEENE NH FAIR N/A N/A N/A CALM 29.83R BURLINGTON VT MOCLDY 83 63 50 SW7 29.77S MT. WASHINGTON CLOUDY 55 54 94 SW12 N/A $$ NYZ052-076-150000- EASTERN NEW YORK CITY SKY/WX TMP DP RH WIND PRES REMARKS ALBANY MOCLDY 78 66 66 SE6 29.79R NEW YORK CITY MOCLDY 76 66 71 SW9 29.81S $$ ANZALL-150000- MARINE OBSERVATIONS STATION/POSITION TIME TEMP WIND PRES VSBY WAVE AIR SEA DIR/SP/G HT/PER (UTC) (F) (DEG/KT/KT) (MB) (MI) (FT/S) BOSTON BUOY 2250 74 72 150/ 10/ 12 1009.2F 1/ 6 BUZZARDS BAY 2200 76 200/ 14/ 14 1011.2S NANTUCKET SOUND 2250 76 77 180/ 10/ 12 1011.0F 1/ 3 MASS BAY-STELLWA 2204 74 71 210/ 6/ 10 1008.4R 1 7/8 1/ 3 ISLE OF SHOALS 2200 68 60/ 14/ 15 1009.8F S OF BLOCK IS 2243 78 N/A 4/ 7 $$ ......................KEY......................... SKY/WX - SKY CONDITION/PRESENT WEATHER TMP - TEMPERATURE IN FAHRENHEIT DWPT - DEWPOINT IN FAHRENHEIT RH - RELATIVE HUMIDITY IN PERCENT WIND - DIRECTION AND SPEED IN MPH PRES - MEAN SEA LEVEL PRESSURE IN INCHES OF HG WCI - WIND CHILL INDEX VSB - VISIBILITY IN MILES HX - HEAT INDEX TC - TEMPERATURE IN CELSIUS VRB - VARIABLE WIND DIRECTION N/A - NOT AVAILABLE

USA.gov is the U.S. government's official web portal to all federal, state and local government web resources and services.